EW9442 Weather Reports


Display with metric or nautical units.
time (UTC)temp
F
wind
direction
speed
MPH
gust
MPH
rain 1hr
in
rain 24hr
in
rain mn
in
humidity
%
barometer
mb
20260506101547 61 180 0.0 0.0 0.00 0.00 0.00 82 1009.3
20260506100029 62 194 0.0 2.0 0.00 0.00 0.00 81 1009.0
20260506094527 63 174 0.0 0.0 0.00 0.00 0.00 81 1008.8
20260506093025 63 113 0.0 0.0 0.00 0.00 0.00 81 1008.6
20260506091525 63 140 0.0 0.0 0.00 0.00 0.00 80 1008.6
20260506090038 63 140 0.0 0.0 0.00 0.00 0.00 80 1008.6
20260506084520 64 130 0.0 0.0 0.00 0.00 0.00 79 1008.6
20260506083016 64 193 0.0 0.0 0.00 0.00 0.00 78 1008.5
20260506081513 65 138 0.0 0.0 0.00 0.00 0.00 77 1008.5
20260506073001 68 300 0.0 0.0 0.00 0.00 0.00 78 1008.6
20260506071607 69 178 0.0 0.0 0.00 0.00 0.00 79 1008.4
20260506061539 74 178 0.0 0.0 0.00 0.00 0.00 81 1008.1
20260506044525 77 342 0.0 0.0 0.00 0.00 0.00 83 1007.4
20260506043022 77 342 0.0 0.0 0.00 0.00 0.00 83 1007.2
20260506041528 77 342 0.0 0.0 0.00 0.00 0.00 83 1007.0
20260506040022 77 342 0.0 0.0 0.00 0.00 0.00 83 1006.9
20260506034520 77 9 0.0 0.0 0.00 0.00 0.00 82 1006.8
20260506033026 78 30 0.0 0.0 0.00 0.00 0.00 81 1006.2
20260506031524 78 30 0.0 0.0 0.00 0.00 0.00 80 1005.9
20260506030023 78 34 0.0 0.0 0.00 0.00 0.00 80 1005.5
20260506024518 78 22 0.0 0.0 0.00 0.00 0.00 79 1005.2
20260506023016 79 29 0.0 0.0 0.00 0.00 0.00 79 1005.2
20260506021515 79 38 0.0 0.0 0.00 0.00 0.00 78 1004.9
20260506020020 79 39 0.0 0.0 0.00 0.00 0.00 78 1005.0
20260506014518 79 27 0.0 0.0 0.00 0.00 0.00 78 1004.8
20260506013023 80 349 0.0 0.0 0.00 0.00 0.00 77 1004.8
20260506011513 80 326 0.0 0.0 0.00 0.00 0.00 77 1004.8
20260506010017 80 327 0.0 0.0 0.00 0.00 0.00 77 1004.8
20260506004518 80 314 0.0 0.0 0.00 0.00 0.00 77 1004.3
20260506003011 81 315 0.0 0.0 0.00 0.00 0.00 76 1004.4
20260506001512 81 292 0.0 0.0 0.00 0.00 0.00 76 1004.3
20260506000017 81 321 0.0 0.0 0.00 0.00 0.00 76 1004.4
20260505234516 82 337 0.0 0.0 0.00 0.00 0.00 75 1004.3
20260505233008 82 315 0.0 0.0 0.00 0.00 0.00 75 1004.2
20260505231508 82 311 0.0 0.0 0.00 0.00 0.00 74 1004.2
20260505230012 82 164 0.0 0.0 0.00 0.00 0.00 74 1004.3
20260505224507 83 355 0.0 0.0 0.00 0.00 0.00 73 1004.0
20260505223008 84 304 0.0 0.0 0.00 0.00 0.00 71 1003.8
20260505221504 82 355 0.0 0.0 0.00 0.00 0.00 73 1003.9
20260505220006 83 355 0.0 0.0 0.00 0.00 0.00 72 1004.1
20260505214502 84 289 0.0 0.0 0.00 0.00 0.00 72 1004.3
20260505213101 84 322 0.0 0.0 0.00 0.00 0.00 71 1004.2
20260505211616 85 238 0.0 0.0 0.00 0.00 0.00 73 1004.3
20260505210105 85 272 0.0 0.0 0.00 0.00 0.00 72 1004.7
20260505204551 84 231 0.0 0.0 0.00 0.00 0.00 72 1005.0
20260505203050 83 232 0.0 0.0 0.00 0.00 0.00 74 1005.1
20260505201552 82 286 0.0 0.0 0.00 0.00 0.00 75 1005.0
20260505200043 82 297 0.0 0.0 0.00 0.00 0.00 74 1005.0
20260505194542 81 311 0.0 0.0 0.00 0.00 0.00 74 1005.2
20260505193047 81 252 0.0 0.0 0.00 0.00 0.00 75 1005.5
20260505191549 82 61 0.0 0.0 0.00 0.00 0.00 74 1005.6
20260505190044 82 10 0.0 0.0 0.00 0.00 0.00 75 1005.7
20260505184536 81 83 0.0 0.0 0.00 0.00 0.00 75 1005.5
20260505183047 81 273 0.0 0.0 0.00 0.00 0.00 76 1005.6
20260505181531 79 74 0.0 0.0 0.00 0.00 0.00 77 1005.8
20260505180036 79 280 0.0 0.0 0.00 0.00 0.00 76 1005.9
20260505174536 79 321 0.0 0.0 0.00 0.00 0.00 77 1006.1
20260505173036 79 300 0.0 0.0 0.00 0.00 0.00 77 1006.2
20260505171530 79 5 0.0 0.0 0.00 0.00 0.00 77 1006.1
20260505170022 78 259 0.0 0.0 0.00 0.00 0.00 77 1006.1
20260505164531 78 308 0.0 0.0 0.00 0.00 0.00 78 1006.2
20260505163022 77 264 0.0 0.0 0.00 0.00 0.00 79 1006.2
20260505161514 76 355 0.0 0.0 0.00 0.00 0.00 79 1006.2
20260505153007 75 286 0.0 0.0 0.00 0.00 0.00 80 1006.2
20260505151504 75 157 0.0 0.0 0.00 0.00 0.00 81 1006.1
20260505124542 71 30 0.0 0.0 0.00 0.00 0.00 85 1005.5
20260505123103 71 347 0.0 0.0 0.00 0.00 0.00 85 1005.5
20260505121540 71 286 0.0 0.0 0.00 0.00 0.00 85 1005.6
20260505120047 71 290 0.0 0.0 0.00 0.00 0.00 85 1005.5
20260505114548 71 350 0.0 0.0 0.00 0.00 0.00 85 1005.5
20260505113036 70 300 0.0 0.0 0.00 0.00 0.00 85 1005.2
20260505111535 71 13 0.0 0.0 0.00 0.00 0.00 85 1005.2